Location: Ellerstadt
(49.4644°N, 8.2615°E)
Time: 15:48:01
(UTC+00:00)

Altair - Pass Details

Date: 18 June 2021
Orbit: 1502 x 1682 km, 47.2° (Epoch: 02 August)

Event Time Altitude Azimuth Distance (km) Brightness Sun altitude
Rises 20:22:28 0° 289° (WNW) 4,862 11.3 -6.2°
Reaches altitude 10° 20:26:27 10° 275° (W) 3,897 10.4 -6.7°
Maximum altitude 20:33:31 22° 230° (SW) 3,049 9.1 -7.4°
Drops below altitude 10° 20:40:40 10° 184° (S) 3,935 9.2 -8.2°
Enters shadow 20:43:42 - 173° (S) 4,649 9.5 -8.5°
